Regional Weather Roundup
Issued by NWS

Home | Current Version | Previous Version | Graphics & Text | Print | Product List | Glossary On
Versions: 1 2 3 4 5 6 7 8 9 10 11 12 13 14 15 16 17 18 19 20 21 22 23 24 25 26 27 28 29 30 31 32 33 34 35 36 37 38 39 40 41 42 43 44 45 46 47 48 49 50
000
ASUS45 KPSR 241010
RWRAZ

ARIZONA HOURLY REGIONAL WEATHER ROUNDUP
NATIONAL WEATHER SERVICE PHOENIX AZ
300 AM MST SUN SEP 24 2017

NOTE: FAIR INDICATES FEW OR NO CLOUDS BELOW 12,000 FEET WITH NO
SIGNIFICANT WEATHER AND/OR OBSTRUCTIONS TO VISIBILITY.

AZZ001>003-036-241100-
NORTHWEST ARIZONA

CITY           SKY/WX    TMP DP  RH WIND       PRES   REMARKS
BULLHEAD CITY  CLEAR     66  32  28 N16G22    29.88S
KINGMAN        CLEAR     46  29  51 E9        29.95S
$$

AZZ004>008-015-016-018-241100-
NORTH CENTRAL ARIZONA

CITY           SKY/WX    TMP DP  RH WIND       PRES   REMARKS
GRAND CANYON   CLEAR     32  20  61 SW3       29.97S
WILLIAMS       CLEAR     27  19  74 S8        29.97F WCI  18
PRESCOTT       CLEAR     39  27  62 S3        29.95S
FLAGSTAFF      CLEAR     35  20  54 W3        29.97F
PAYSON           N/A     46  19  34 CALM      29.94S
PAGE           CLEAR     51  29  42 SW8       29.89S
$$

AZZ009>014-017-241100-
NORTHEAST ARIZONA

CITY           SKY/WX    TMP DP  RH WIND       PRES   REMARKS
WINSLOW        CLEAR     40  20  44 W8        29.94S WCI  34
SAINT JOHNS    CLEAR     46  19  34 SW8       29.95S
WINDOW ROCK    CLEAR     39  20  46 SW3       29.97R
SHOW LOW       CLEAR     37  28  70 S6        29.99S WCI  33
$$

AZZ540-542>544-546-548-241100-
GREATER PHOENIX AREA

CITY           SKY/WX    TMP DP  RH WIND       PRES   REMARKS
PHOENIX        CLEAR     68  32  26 CALM      29.75R
BUCKEYE        CLEAR     64  23  20 N10       29.77S
LUKE AFB       CLEAR     63  33  32 NW7       29.76R
DEER VALLEY    CLEAR     65  25  22 NE6       29.77R
SCOTTSDALE     CLEAR     63  33  32 CALM      29.78S
MESA-GATEWAY   CLEAR     59  32  36 SE5       29.78S
$$

AZZ539-553-241100-
SOUTHWEST MARICOPA COUNTY AND PINAL COUNTY

CITY           SKY/WX    TMP DP  RH WIND       PRES   REMARKS
CASA GRANDE    NOT AVBL
GILA BEND      FAIR      60  26  28 S7        29.76R
$$

AZZ503-504-507>509-241100-
SOUTHEAST ARIZONA

CITY           SKY/WX    TMP DP  RH WIND       PRES   REMARKS
TUCSON         CLEAR     62  29  28 SE6       29.84S
DAVIS-MONTHAN  CLEAR     59  29  32 S6        29.82F
NOGALES        CLEAR     52  38  58 E3        29.88S
SIERRA VISTA   PTCLDY    56  31  38 W9        29.92S
DOUGLAS        MOCLDY    54  29  38 NW7       29.89S
SAFFORD        CLEAR     56  22  26 SW3       29.84R
$$

AZZ532-241100-
SOUTHWEST ARIZONA

CITY           SKY/WX    TMP DP  RH WIND       PRES   REMARKS
YUMA           CLEAR     69  29  22 N6        29.76S
$$

CAZ041-043-047-048-061-525>527-560>570-241100-
SOUTHERN CALIFORNIA

CITY           SKY/WX    TMP DP  RH WIND       PRES   REMARKS
DOWNTOWN L.A.  CLEAR     63  54  72 CALM      29.85F
L.A. AIRPORT   CLEAR     62  55  77 NE6       29.85F
SAN DIEGO      CLEAR     63  54  72 NE3       29.86S
BURBANK        CLEAR     58  48  69 CALM      29.86F
ONTARIO        CLEAR     57  50  77 CALM      29.87S
RIVERSIDE      CLEAR     56  51  84 CALM      29.87S
PALM SPRINGS   CLEAR     68  46  45 NW6       29.85R
EL CENTRO NAS  CLEAR     63  41  44 NW8       29.79R
IMPERIAL       CLEAR     64  46  52 W3        29.77R
BLYTHE         CLEAR     70  29  21 NW17      29.80R
NEEDLES        CLEAR     68  32  26 N15       29.88R
$$

NVZ020-UTZ003-241100-
SOUTHERN NEVADA-UTAH

CITY           SKY/WX    TMP DP  RH WIND       PRES   REMARKS
LAS VEGAS      CLEAR     58  34  40 CALM      29.95R
SALT LAKE CITY LGT RAIN  46  44  93 CALM      29.89F
$$

NMZ009-TXZ055-241100-
NEW MEXICO-WEST TEXAS

CITY           SKY/WX    TMP DP  RH WIND       PRES   REMARKS
ALBUQUERQUE    CLOUDY    58  49  72 E5        29.93R
EL PASO        CLEAR     72  43  35 W6        29.86R
$$


........................KEY........................
SKY/WX - SKY CONDITION/WEATHER
TMP    - TEMPERATURE IN FAHRENHEIT
DP     - DEW POINT IN FAHRENHEIT
RH     - RELATIVE HUMIDITY IN PERCENT
WIND   - DIRECTION AND SPEED IN MILES PER HOUR (MPH)
VRB    - VARIABLE WIND DIRECTION
PRES   - MEAN SEA LEVEL PRESSURE IN INCHES OF MERCURY
         F - FALLING PRESSURE   R - RISING PRESSURE
         S - STEADY PRESSURE
VSB    - VISIBILITY IN MILES
HX     - HEAT INDEX IN FAHRENHEIT
WCI    - WIND CHILL INDEX IN FAHRENHEIT
TC     - TEMPERATURE IN CELSIUS WHICH IS ALSO KNOWN AS
         TEMPERATURE IN CENTIGRADE
AFB    - AIR FORCE BASE
         LUKE AFB IS LUKE AIR FORCE BASE
         DAVIS-MONTHAN IS DAVIS-MONTHAN AIR FORCE BASE
NAS    - NAVAL AIR STATION
         EL CENTRO NAS IS EL CENTRO NAVAL AIR STATION
N/A    - NOT AVAILABLE




USA.gov is the U.S. government's official web portal to all federal, state and local government web resources and services.